Change the Weather History Date:

Wednesday, May 1, 2013

  Actual Average Record
Temperature  
Mean Temperature 68 °F 70 °F  
Max Temperature 72 °F 82 °F 91 °F (1987)
Min Temperature 64 °F 58 °F 41 °F (2014)
Degree Days  
Heating Degree Days 0 1  
Month to date heating degree days 0 1  
Since 1 July heating degree days 2164 2225  
Cooling Degree Days 3 6  
Month to date cooling degree days 3 6  
Year to date cooling degree days 116 153  
Growing Degree Days 18 (Base 50)    
Moisture  
Dew Point 65 °F    
Average Humidity 94    
Maximum Humidity 100    
Minimum Humidity 87    
Precipitation  
Precipitation 1.66 in 0.16 in 4.34 in (1954)
Month to date precipitation 1.66 0.16  
Year to date precipitation 23.32 19.02  
Snow  
Snow 0.00 in - - ()
Month to date snowfall 0.0  
Since 1 July snowfall 0.3  
Snow Depth 0.00 in    
Sea Level Pressure  
Sea Level Pressure 29.92 in    
Wind  
Wind Speed 6 mph (ENE)    
Max Wind Speed 15 mph    
Max Gust Speed 22 mph    
Visibility 6 miles    
Events Rain , Thunderstorm    
T = Trace of Precipitation, MM = Missing Value Source: NWS Daily Summary

Daily Weather History Graph

Daily Weather History Graph

Search for Another Location

Airport or City:

Trip Planner

Search our weather history database for the weather conditions in past years. The results will help you decide how hot, cold, wet, or windy it might be!

Date:

Astronomy

May. 01, 2013 Rise Set
Actual Time 6:21 AM CDT 7:49 PM CDT
Civil Twilight 5:55 AM CDT 8:15 PM CDT
Nautical Twilight 5:23 AM CDT 8:47 PM CDT
Astronomical Twilight 4:51 AM CDT 9:20 PM CDT
Moon 12:58 AM CDT (5/1) 11:59 AM CDT (5/1)
Length of Visible Light 14h 20m
Length of Day
13h 28m
Waning Gibbous, 59% of the Moon is Illuminated
May 1
Waning Gibbous
May 2
Last Quarter
May 9
New
May 17
First Quarter
May 24
Full

Hourly Weather History & Observations

Time (CDT) Temp. Dew Point Humidity Pressure Visibility Wind Dir Wind Speed Gust Speed Precip Events Conditions
12:53 AM 68.0 °F 63.0 °F 84% 29.91 in 10.0 mi ESE 5.8 mph - 0.00 in Rain Light Rain
1:53 AM 66.0 °F 64.0 °F 93% 29.90 in 7.0 mi East 3.5 mph - 0.05 in Rain Light Rain
2:53 AM 66.0 °F 64.0 °F 93% 29.88 in 10.0 mi Calm Calm - 0.01 in   Overcast
3:53 AM 66.0 °F 63.0 °F 90% 29.88 in 10.0 mi East 3.5 mph - 0.00 in   Mostly Cloudy
4:53 AM 64.9 °F 64.0 °F 97% 29.88 in 10.0 mi Calm Calm - 0.05 in Rain Light Rain
5:24 AM 64.4 °F 64.4 °F 100% 29.89 in 4.0 mi Calm Calm - 0.02 in Rain Light Rain
5:53 AM 64.9 °F 64.0 °F 97% 29.89 in 10.0 mi NE 4.6 mph - 0.02 in   Overcast
6:06 AM 64.4 °F 62.6 °F 94% 29.89 in 10.0 mi ENE 5.8 mph - 0.00 in Rain Light Rain
6:29 AM 64.4 °F 62.6 °F 94% 29.89 in 4.0 mi ENE 4.6 mph - 0.01 in Rain Light Rain
6:53 AM 64.9 °F 63.0 °F 93% 29.90 in 10.0 mi ENE 8.1 mph - 0.01 in   Overcast
7:43 AM 64.4 °F 64.4 °F 100% 29.91 in 1.5 mi Variable 3.5 mph - 0.08 in Rain Heavy Rain
7:53 AM 64.9 °F 64.0 °F 97% 29.91 in 1.0 mi East 4.6 mph - 0.18 in Rain Heavy Rain
8:10 AM 66.2 °F 64.4 °F 94% 29.91 in 3.0 mi East 4.6 mph - 0.04 in Rain Light Rain
8:40 AM 66.2 °F 64.4 °F 94% 29.92 in 1.8 mi East 3.5 mph - 0.11 in Rain Heavy Rain
8:53 AM 66.0 °F 64.9 °F 96% 29.92 in 2.5 mi ENE 3.5 mph - 0.15 in Rain Light Rain
9:04 AM 66.2 °F 64.4 °F 94% 29.92 in 4.0 mi ENE 5.8 mph - 0.00 in Rain Light Rain
9:51 AM 66.2 °F 64.4 °F 94% 29.93 in 1.8 mi East 5.8 mph - 0.07 in Rain Heavy Rain
9:53 AM 66.0 °F 64.9 °F 96% 29.93 in 1.2 mi East 6.9 mph - 0.09 in Rain Heavy Rain
10:02 AM 66.2 °F 64.4 °F 94% 29.93 in 4.0 mi ENE 3.5 mph - 0.01 in Rain Rain
10:33 AM 66.2 °F 64.4 °F 94% 29.94 in 1.2 mi ESE 4.6 mph - 0.13 in Rain Heavy Rain
10:43 AM 66.2 °F 66.2 °F 100% 29.94 in 0.8 mi Calm Calm - 0.20 in Rain Heavy Rain
10:51 AM 66.2 °F 66.2 °F 100% 29.93 in 1.5 mi NE 3.5 mph - 0.24 in Rain Heavy Rain
10:53 AM 66.9 °F 66.0 °F 97% 29.94 in 1.5 mi NE 3.5 mph - 0.25 in Rain Heavy Rain
11:14 AM 66.2 °F 66.2 °F 100% 29.93 in 0.8 mi East 3.5 mph - 0.13 in Rain Heavy Rain
11:23 AM 68.0 °F 66.2 °F 94% 29.93 in 1.8 mi East 4.6 mph - 0.20 in Rain Light Rain
11:35 AM 68.0 °F 66.2 °F 94% 29.93 in 1.8 mi SSW 3.5 mph - 0.31 in Rain Light Rain
11:37 AM 68.0 °F 66.2 °F 94% 29.93 in 3.0 mi Calm Calm - 0.32 in Rain Light Rain
11:53 AM 70.0 °F 66.9 °F 90% 29.92 in 8.0 mi Variable 4.6 mph - 0.42 in Rain Light Rain
12:03 PM 71.6 °F 66.2 °F 83% 29.92 in 4.0 mi Variable 4.6 mph - 0.01 in Rain Light Rain
12:29 PM 71.6 °F 66.2 °F 83% 29.92 in 2.5 mi Variable 5.8 mph - 0.03 in Rain Light Rain
12:34 PM 69.8 °F 66.2 °F 88% 29.92 in 0.8 mi ESE 4.6 mph - 0.05 in Rain Heavy Rain
12:45 PM 69.8 °F 66.2 °F 88% 29.91 in 2.0 mi Calm Calm - 0.12 in Rain Rain
12:53 PM 71.1 °F 68.0 °F 90% 29.91 in 6.0 mi ESE 4.6 mph - 0.17 in Rain Light Rain
1:53 PM 69.1 °F 66.0 °F 90% 29.91 in 10.0 mi ENE 6.9 mph - 0.06 in   Overcast
1:58 PM 69.8 °F 66.2 °F 88% 29.91 in 6.0 mi Calm Calm - N/A Thunderstorm Mostly Cloudy
2:53 PM 68.0 °F 66.0 °F 93% 29.90 in 6.0 mi NE 8.1 mph - 0.04 in Rain , Thunderstorm Light Rain
2:56 PM 68.0 °F 66.2 °F 94% 29.90 in 3.0 mi ENE 6.9 mph - 0.01 in Rain Light Rain
3:11 PM 66.2 °F 64.4 °F 94% 29.90 in 10.0 mi ENE 5.8 mph - 0.01 in Rain , Thunderstorm Light Rain
3:26 PM 66.2 °F 64.4 °F 94% 29.91 in 10.0 mi NE 10.4 mph 19.6 mph 0.02 in   Overcast
3:53 PM 66.9 °F 64.0 °F 90% 29.90 in 6.0 mi East 9.2 mph - 0.02 in   Mostly Cloudy
4:00 PM 66.2 °F 64.4 °F 94% 29.90 in 10.0 mi ENE 8.1 mph - N/A   Mostly Cloudy
4:44 PM 66.2 °F 64.4 °F 94% 29.91 in 10.0 mi ENE 9.2 mph - 0.00 in Rain Light Rain
4:53 PM 66.0 °F 64.0 °F 93% 29.90 in 10.0 mi ENE 8.1 mph - 0.00 in Rain Light Rain
5:01 PM 66.2 °F 64.4 °F 94% 29.90 in 6.0 mi East 4.6 mph - 0.00 in Rain Light Rain
5:53 PM 64.9 °F 62.1 °F 90% 29.92 in 6.0 mi ENE 11.5 mph 21.9 mph 0.02 in Rain Light Rain
6:53 PM 66.0 °F 64.0 °F 93% 29.90 in 5.0 mi East 9.2 mph 17.3 mph 0.05 in Rain Rain
7:10 PM 66.2 °F 64.4 °F 94% 29.91 in 10.0 mi East 8.1 mph - 0.02 in Rain Light Rain
7:53 PM 66.0 °F 64.0 °F 93% 29.93 in 10.0 mi East 9.2 mph - 0.06 in   Overcast
8:53 PM 66.0 °F 63.0 °F 90% 29.96 in 10.0 mi ENE 5.8 mph - 0.01 in   Overcast
9:53 PM 64.9 °F 63.0 °F 93% 29.96 in 10.0 mi ENE 6.9 mph 16.1 mph N/A   Overcast
10:30 PM 64.4 °F 62.6 °F 94% 29.97 in 10.0 mi ENE 6.9 mph - N/A   Overcast
10:53 PM 64.9 °F 62.1 °F 90% 29.97 in 10.0 mi ENE 6.9 mph - N/A   Overcast
11:53 PM 64.9 °F 62.1 °F 90% 29.98 in 10.0 mi ENE 4.6 mph - N/A   Overcast